Date String (YYYY-MM-DD hh:mm:ss) UTC,Instrument flags,absolute air pressure of the measurement (hPa),sample flow rate (lpm),inlet stack bypass flow (lpm),air temperature of the measurement (°C),ambient temperature measured by the external sensor (°C),aerosol sample conditioner tube jacket temperature (°C),OPC LED temperature (°C),internal box temperature (°C),relative humidity of the measurement (%),span deviation,mass concentration of particles derived from Lorenz-Mie calculation of OPC scattering (μg/m³),mass concentration of particles derived from Lorenz-Mie calculation of OPC scattering (μg/m³),mass concentration of particles derived from Lorenz-Mie calculation of OPC scattering (μg/m³)
DateTimeUTC,F1_M11,P_M11,Q1_M11,Q2_M11,T1_M11,T2_M11,T3_M11,T4_M11,T5_M11,U1_M11,ZSPAN_M11,X2_M11,X0_M11,X1_M11
2024-05-20 20:00:00,SystemResetWarning,0824.4,5.00,000.00,029.1,028.5,000.0,037.3,030.8,020.5,0000.0,0007.57,0024.54,0005.73
2024-05-20 20:01:00,SystemResetWarning,0824.3,5.00,000.00,029.1,028.5,000.0,037.3,030.8,020.7,0000.0,0007.49,0025.14,0005.71
2024-05-20 20:02:00,SystemResetWarning,0824.2,5.00,000.00,029.1,028.5,000.0,037.3,030.8,021.1,0000.0,0007.49,0024.00,0005.68
2024-05-20 20:03:00,SystemResetWarning,0824.2,5.00,000.00,029.1,028.5,000.0,037.3,030.9,020.8,0000.0,0007.51,0024.35,0005.66
2024-05-20 20:04:00,SystemResetWarning,0824.2,4.99,000.00,029.1,028.5,000.0,037.3,030.9,020.6,0000.0,0007.44,0024.36,0005.66
2024-05-20 20:05:00,SystemResetWarning,0824.2,5.00,000.00,029.2,028.5,000.0,037.4,030.9,020.7,0000.0,0007.40,0024.26,0005.65
2024-05-20 20:06:00,SystemResetWarning,0824.2,5.01,000.00,029.2,028.6,000.0,037.4,030.9,020.6,0000.0,0007.38,0023.79,0005.61
2024-05-20 20:07:00,SystemResetWarning,0824.2,5.01,000.00,029.2,028.6,000.0,037.4,031.0,020.9,0000.0,0007.36,0024.29,0005.58
2024-05-20 20:08:00,SystemResetWarning,0824.2,5.00,000.00,029.2,028.6,000.0,037.4,030.9,020.7,0000.0,0007.27,0023.46,0005.53
2024-05-20 20:09:00,SystemResetWarning,0824.2,4.99,000.00,029.2,028.6,000.0,037.4,031.0,020.9,0000.0,0007.23,0023.47,0005.51
2024-05-20 20:10:00,SystemResetWarning,0824.1,4.99,000.00,029.3,028.6,000.0,037.4,031.0,022.0,0000.0,0007.19,0023.01,0005.47
2024-05-20 20:11:00,SystemResetWarning,0824.0,4.99,000.00,029.3,028.6,000.0,037.5,031.0,021.4,0000.0,0007.09,0023.89,0005.39
2024-05-20 20:12:00,SystemResetWarning,0824.0,5.00,000.00,029.3,028.7,000.0,037.5,031.0,021.7,0000.0,0007.05,0023.88,0005.31
2024-05-20 20:13:00,SystemResetWarning,0824.0,5.01,000.00,029.3,028.7,000.0,037.5,031.0,020.9,0000.0,0006.96,0023.94,0005.24
2024-05-20 20:14:00,SystemResetWarning,0824.0,5.00,000.00,029.3,028.7,000.0,037.5,031.0,020.3,0000.0,0006.87,0023.58,0005.17
2024-05-20 20:15:00,SystemResetWarning,0824.0,5.01,000.00,029.3,028.7,000.0,037.5,031.1,020.1,0000.0,0006.83,0024.62,0005.09
2024-05-20 20:16:00,SystemResetWarning,0824.0,5.00,000.00,029.3,028.7,000.0,037.5,031.1,020.9,0000.0,0006.80,0024.14,0005.04
2024-05-20 20:17:00,SystemResetWarning,0824.0,5.00,000.00,029.3,028.7,000.0,037.6,031.1,021.1,0000.0,0006.73,0024.72,0004.98
2024-05-20 20:18:00,SystemResetWarning,0824.0,5.00,000.00,029.4,028.7,000.0,037.6,031.1,020.6,0000.0,0006.64,0023.73,0004.91
2024-05-20 20:19:00,SystemResetWarning,0823.9,5.00,000.00,029.4,028.8,000.0,037.6,031.1,020.0,0000.0,0006.65,0023.76,0004.88
2024-05-20 20:20:00,SystemResetWarning,0823.9,5.00,000.00,029.4,028.8,000.0,037.6,031.1,020.4,0000.0,0006.62,0024.58,0004.83
2024-05-20 20:21:00,SystemResetWarning,0823.9,5.00,000.00,029.4,028.8,000.0,037.6,031.1,020.2,0000.0,0006.60,0023.84,0004.80
2024-05-20 20:22:00,SystemResetWarning,0824.0,5.01,000.00,029.4,028.8,000.0,037.6,031.2,020.7,0000.0,0006.59,0022.92,0004.81
2024-05-20 20:23:00,SystemResetWarning,0824.0,5.00,000.00,029.4,028.8,000.0,037.7,031.2,020.6,0000.0,0006.60,0024.23,0004.78
2024-05-20 20:24:00,SystemResetWarning,0823.9,5.00,000.00,029.5,028.8,000.0,037.7,031.2,020.7,0000.0,0006.58,0025.09,0004.76
2024-05-20 20:25:00,SystemResetWarning,0824.0,5.00,000.00,029.5,028.9,000.0,037.7,031.2,020.2,0000.0,0006.55,0024.71,0004.74
2024-05-20 20:26:00,SystemResetWarning,0824.0,5.00,000.00,029.5,028.9,000.0,037.7,031.2,020.2,0000.0,0006.56,0025.03,0004.74
2024-05-20 20:27:00,SystemResetWarning,0824.0,5.00,000.00,029.5,028.9,000.0,037.7,031.2,020.1,0000.0,0006.56,0027.53,0004.72
2024-05-20 20:28:00,SystemResetWarning,0823.9,5.00,000.00,029.5,028.9,000.0,037.7,031.2,020.0,0000.0,0006.56,0026.35,0004.72
2024-05-20 20:29:00,SystemResetWarning,0824.0,5.01,000.00,029.5,028.9,000.0,037.7,031.3,020.0,0000.0,0006.58,0026.42,0004.72
2024-05-20 20:30:00,SystemResetWarning,0823.9,5.00,000.00,029.6,028.9,000.0,037.7,031.3,019.9,0000.0,0006.53,0026.63,0004.71
2024-05-20 20:31:00,SystemResetWarning,0823.9,5.00,000.00,029.6,028.9,000.0,037.8,031.3,019.8,0000.0,0006.50,0025.56,0004.72
2024-05-20 20:32:00,SystemResetWarning,0823.9,5.00,000.00,029.6,029.0,000.0,037.8,031.3,020.0,0000.0,0006.52,0025.72,0004.71
2024-05-20 20:33:00,SystemResetWarning,0823.9,4.99,000.00,029.6,029.0,000.0,037.8,031.3,020.1,0000.0,0006.48,0024.48,0004.70
2024-05-20 20:34:00,SystemResetWarning,0823.8,5.00,000.00,029.6,029.0,000.0,037.8,031.3,019.9,0000.0,0006.45,0022.38,0004.72
2024-05-20 20:35:00,SystemResetWarning,0823.8,5.00,000.00,029.6,029.0,000.0,037.8,031.3,019.8,0000.0,0006.51,0022.24,0004.74
2024-05-20 20:36:00,SystemResetWarning,0823.8,5.01,000.00,029.7,029.0,000.0,037.9,031.4,019.8,0000.0,0006.53,0023.16,0004.74
2024-05-20 20:37:00,SystemResetWarning,0823.8,5.01,000.00,029.7,029.0,000.0,037.9,031.4,019.9,0000.0,0006.53,0021.39,0004.72
2024-05-20 20:38:00,SystemResetWarning,0823.8,5.00,000.00,029.7,029.0,000.0,037.9,031.4,019.8,0000.0,0006.50,0019.53,0004.70
2024-05-20 20:39:00,SystemResetWarning,0823.8,4.99,000.00,029.7,029.1,000.0,037.9,031.4,019.7,0000.0,0006.50,0022.93,0004.69
2024-05-20 20:40:00,SystemResetWarning,0823.8,4.99,000.00,029.7,029.1,000.0,037.9,031.4,019.9,0000.0,0006.50,0023.16,0004.68
2024-05-20 20:41:00,SystemResetWarning,0823.7,5.00,000.00,029.7,029.1,000.0,037.9,031.4,020.1,0000.0,0006.49,0022.42,0004.65
2024-05-20 20:42:00,SystemResetWarning,0823.7,5.00,000.00,029.7,029.1,000.0,037.9,031.4,019.8,0000.0,0006.45,0022.94,0004.59
2024-05-20 20:43:00,SystemResetWarning,0823.7,5.00,000.00,029.8,029.1,000.0,037.9,031.5,019.9,0000.0,0006.44,0023.94,0004.55
2024-05-20 20:44:00,SystemResetWarning,0823.8,5.00,000.00,029.8,029.1,000.0,038.0,031.5,019.8,0000.0,0006.47,0024.67,0004.53
2024-05-20 20:45:00,SystemResetWarning,0823.8,5.00,000.00,029.8,029.1,000.0,038.0,031.5,020.1,0000.0,0006.46,0024.61,0004.52
2024-05-20 20:46:00,SystemResetWarning,0823.8,5.00,000.00,029.8,029.2,000.0,038.0,031.5,019.7,0000.0,0006.48,0023.84,0004.48
2024-05-20 20:47:00,SystemResetWarning,0823.8,5.01,000.00,029.8,029.2,000.0,038.0,031.5,019.6,0000.0,0006.47,0023.81,0004.47
2024-05-20 20:48:00,SystemResetWarning,0823.8,5.01,000.00,029.8,029.2,000.0,038.0,031.6,019.7,0000.0,0006.44,0024.54,0004.46
2024-05-20 20:49:00,SystemResetWarning,0823.7,5.00,000.00,029.9,029.2,000.0,038.1,031.6,019.7,0000.0,0006.43,0024.37,0004.46
2024-05-20 20:50:00,SystemResetWarning,0823.8,5.00,000.00,029.9,029.2,000.0,038.1,031.6,019.8,0000.0,0006.38,0022.32,0004.43
2024-05-20 20:51:00,SystemResetWarning,0823.7,5.01,000.00,029.9,029.3,000.0,038.1,031.6,019.9,0000.0,0006.32,0022.05,0004.40
2024-05-20 20:52:00,SystemResetWarning,0823.7,4.99,000.00,029.9,029.3,000.0,038.1,031.6,020.0,0000.0,0006.29,0022.22,0004.38
2024-05-20 20:53:00,SystemResetWarning,0823.6,4.99,000.00,029.9,029.3,000.0,038.1,031.6,020.0,0000.0,0006.22,0021.04,0004.38
2024-05-20 20:54:00,SystemResetWarning,0823.6,5.01,000.00,029.9,029.3,000.0,038.1,031.6,020.0,0000.0,0006.12,0020.81,0004.36
2024-05-20 20:55:00,SystemResetWarning,0823.5,5.01,000.00,030.0,029.3,000.0,038.2,031.7,020.2,0000.0,0006.16,0021.15,0004.34
2024-05-20 20:56:00,SystemResetWarning,0823.5,4.99,000.00,030.0,029.3,000.0,038.2,031.7,020.0,0000.0,0006.17,0021.71,0004.32
2024-05-20 20:57:00,SystemResetWarning,0823.5,4.99,000.00,030.0,029.4,000.0,038.2,031.7,019.5,0000.0,0006.10,0021.85,0004.29
2024-05-20 20:58:00,SystemResetWarning,0823.5,4.99,000.00,030.0,029.4,000.0,038.2,031.7,019.7,0000.0,0006.06,0022.49,0004.27
2024-05-20 20:59:00,SystemResetWarning,0823.5,5.02,000.00,030.0,029.4,000.0,038.2,031.8,019.9,0000.0,0006.03,0021.41,0004.22
